Showing default

EAGLET 1, 43790

Orbit data source: Space-Track

EAGLET 1, 43790 is a payload satellite owned by OHB-I (IT) in SSO that was launched on Mon, 03 Dec 2018 UTC via an FALCON 9 launch vehicle from the Air Force Western Test Range (AFWTR). Payload-class satellites include a variety of spacecraft equipped with specific instruments for various scientific and technological missions. These include communications satellites like Starlink; space stations such as the ISS; scientific satellites like the Hubble; Earth observation satellites from companies like Planet Labs, Umbra, and HawkEye 360; GPS; miniature CubeSats for education and research; and military/defense satellites.

Loading next visibility...
Identifier
43790, 2018-099AJ
Orbit
SSO
Country
Flag of ITIT
Related business
Manufacturer
OHB-I
Mission
Operational Commercial Technology
Bus & Motor
CUBESAT 3U, Unknown motor
Mass
5 kg wet, 5 kg dry
Launch date (UTC)
2018-12-03 (8 years ago)
Launch vehicle
FALCON 9
Launch site
Air Force Western Test Range (AFWTR)
Object type
Payload
Rocket body
Debris
Shape & HBR
Box + 2 Pan, 0.2 m
Radar Cross Section
0.035 m², Medium (>0.1 m² and < 1m²)

Expand to show TLE details & history
Last TLE update: 23 hours ago

TLE from 23 hours ago
0 EAGLET 1
1 43790U 18099AJ  26235.57008068  .00003140  00000-0  17931-3 0  9994
2 43790  97.4182 283.4528 0012673 110.2979 249.9616 15.13374370422522
Epoch: 2026-08-23T13:40Z
TLE epoch observation values (Epoch: 2026-08-23T13:40:54.970Z)
Latitude
-0.00001°
Longitude
106.35952°
Altitude
532.008 km
Speed
7.595 km/s
True Right ascension
18h 53m 48s
True Declination
0° 00' 00"
Sunlit
Object was in full shadow at epoch
Visualization orbit readout
Latitude
Unknown
Longitude
Unknown
Altitude
Unknown
Speed
Unknown
Apparent Right ascension
Unknown
Apparent Declination
Unknown
Sunlit
N/A
Visualization observer readout
Local Sidereal Time
04:05:06
Azimuth
Unknown
Elevation
Unknown
Doppler factor
Unknown
Orbital elements
Apogee altitude
531.639 km
Perigee altitude
514.148 km
Semi-major axis
6,901.03 km
Eccentricity
0.00127
Inclination
97.4182°
RAAN
283.4528°
Arg. of periapsis
110.2979°
True anomaly
249.82524°
Mean anomaly
249.9616°
Eccentric anomaly
249.89341°
Mean motion
3.78593 °/min
Orbital period
95.09 mins
BSTAR
0.00017931
Loading maneuver chart data...
Computing Atmospheric mass density...
Loading historical data...
Loading historical data...
Loading historical data...
Loading historical data...
Loading historical data...
Loading historical data...
Loading historical data...

Documentation

Showing up to 5 results
|